Location: Unspecified
(0.0000°N, 0.0000°E)
Time: 02:59:00
(UTC+00:00)

deb Explorer IX - Pass Details

Date: 17 December 2018
Orbit: 538 x 1115 km, 38.8° (Epoch: 14 January)

Event Time Altitude Azimuth Distance (km) Brightness Sun altitude
Rises 15:12:37 0° 259° (W) 3,463 ? 36.9°
Reaches altitude 10° 15:16:19 10° 280° (W) 2,390 ? 36.1°
Maximum altitude 15:19:41 16° 317° (NW) 1,872 ? 35.4°
Drops below altitude 10° 15:22:47 10° 355° (N) 2,148 ? 34.7°
Sets 15:25:52 0° 17° (NNE) 2,951 ? 34.0°
